| time (UTC) | temp C | wind direction | speed KPH | gust KPH | rain 1hr cm | rain 24hr cm | rain mn cm | humidity % | barometer mb |
| 20260905202706 | 20 | 58 | 14.5 | 24.1 | 0.00 | 0.00 | 0.00 | 39 | 1029.2 |
| 20260905202206 | 20 | 103 | 8.0 | 16.1 | 0.00 | 0.00 | 0.00 | 38 | 1029.1 |
| 20260905201707 | 20 | 137 | 6.4 | 16.1 | 0.00 | 0.00 | 0.00 | 36 | 1029.2 |
| 20260905201206 | 20 | 124 | 4.8 | 16.1 | 0.00 | 0.00 | 0.00 | 36 | 1029.1 |
| 20260905200706 | 20 | 94 | 9.7 | 16.1 | 0.00 | 0.00 | 0.00 | 36 | 1029.1 |
| 20260905200205 | 20 | 104 | 4.8 | 14.5 | 0.00 | 0.00 | 0.00 | 36 | 1029.2 |
| 20260905195705 | 20 | 121 | 6.4 | 14.5 | 0.00 | 0.00 | 0.00 | 39 | 1029.1 |
| 20260905195205 | 20 | 109 | 8.0 | 17.7 | 0.00 | 0.00 | 0.00 | 38 | 1029.1 |
| 20260905194705 | 20 | 148 | 9.7 | 17.7 | 0.00 | 0.00 | 0.00 | 38 | 1029.2 |
| 20260905194205 | 20 | 85 | 6.4 | 14.5 | 0.00 | 0.00 | 0.00 | 39 | 1029.1 |
| 20260905193705 | 20 | 96 | 6.4 | 14.5 | 0.00 | 0.00 | 0.00 | 38 | 1029.2 |
| 20260905193205 | 20 | 94 | 6.4 | 14.5 | 0.00 | 0.00 | 0.00 | 38 | 1029.3 |
| 20260905192705 | 20 | 93 | 6.4 | 16.1 | 0.00 | 0.00 | 0.00 | 38 | 1029.3 |
| 20260905192206 | 20 | 49 | 8.0 | 16.1 | 0.00 | 0.00 | 0.00 | 39 | 1029.3 |
| 20260905191916 | 19 | 73 | 8.0 | 9.7 | 0.00 | 0.00 | 0.00 | 43 | 1029.4 |
| 20260905191801 | 20 | 103 | 3.2 | 11.3 | 0.00 | 0.00 | 0.00 | 41 | 1029.4 |
| 20260905190704 | 19 | 75 | 1.6 | 9.7 | 0.00 | 0.00 | 0.00 | 43 | 1029.4 |
| 20260905190204 | 19 | 102 | 6.4 | 9.7 | 0.00 | 0.00 | 0.00 | 42 | 1029.6 |
| 20260905185704 | 19 | 76 | 4.8 | 9.7 | 0.00 | 0.00 | 0.00 | 44 | 1029.6 |
| 20260905185204 | 18 | 73 | 1.6 | 9.7 | 0.00 | 0.00 | 0.00 | 46 | 1029.6 |
| 20260905184704 | 18 | 42 | 6.4 | 9.7 | 0.00 | 0.00 | 0.00 | 46 | 1029.7 |
| 20260905184423 | 18 | 106 | 3.2 | 9.7 | 0.00 | 0.00 | 0.00 | 47 | 1029.6 |
| 20260905183705 | 18 | 104 | 6.4 | 9.7 | 0.00 | 0.00 | 0.00 | 47 | 1029.8 |
| 20260905183203 | 18 | 90 | 1.6 | 8.0 | 0.00 | 0.00 | 0.00 | 45 | 1029.8 |
| 20260905182703 | 18 | 89 | 3.2 | 8.0 | 0.00 | 0.00 | 0.00 | 47 | 1029.9 |
| 20260905182203 | 18 | 55 | 3.2 | 6.4 | 0.00 | 0.00 | 0.00 | 49 | 1030.0 |
| 20260905181703 | 17 | 121 | 3.2 | 8.0 | 0.00 | 0.00 | 0.00 | 49 | 1030.0 |
| 20260905181204 | 17 | 100 | 4.8 | 8.0 | 0.00 | 0.00 | 0.00 | 49 | 1030.1 |
| 20260905180924 | 17 | 118 | 1.6 | 6.4 | 0.00 | 0.00 | 0.00 | 49 | 1030.1 |
| 20260905180203 | 17 | 82 | 1.6 | 4.8 | 0.00 | 0.00 | 0.00 | 50 | 1030.2 |
| 20260905175702 | 17 | 58 | 1.6 | 9.7 | 0.00 | 0.00 | 0.00 | 52 | 1030.3 |
| 20260905175205 | 16 | 87 | 3.2 | 9.7 | 0.00 | 0.00 | 0.00 | 53 | 1030.4 |
| 20260905174703 | 16 | 151 | 4.8 | 8.0 | 0.00 | 0.00 | 0.00 | 52 | 1030.3 |
| 20260905174203 | 17 | 109 | 3.2 | 6.4 | 0.00 | 0.00 | 0.00 | 51 | 1030.4 |
| 20260905174152 | 16 | 83 | 0.0 | 0.0 | 0.00 | 0.00 | 0.00 | 52 | 1030.6 |
| 20260905173202 | 16 | 147 | 0.0 | 0.0 | 0.00 | 0.00 | 0.00 | 51 | 1030.6 |
| 20260905172704 | 15 | 310 | 0.0 | 0.0 | 0.00 | 0.00 | 0.00 | 55 | 1030.6 |
| 20260905172202 | 15 | 18 | 0.0 | 0.0 | 0.00 | 0.00 | 0.00 | 55 | 1030.7 |
| 20260905171707 | 15 | 121 | 0.0 | 0.0 | 0.00 | 0.00 | 0.00 | 58 | 1030.8 |
| 20260905171202 | 14 | 142 | 0.0 | 0.0 | 0.00 | 0.00 | 0.00 | 57 | 1030.9 |
| 20260905170703 | 14 | 121 | 0.0 | 0.0 | 0.00 | 0.00 | 0.00 | 59 | 1031.0 |
| 20260905170202 | 14 | 87 | 0.0 | 0.0 | 0.00 | 0.00 | 0.00 | 60 | 1031.0 |
| 20260905165929 | 14 | 44 | 0.0 | 0.0 | 0.00 | 0.00 | 0.00 | 59 | 1031.1 |
| 20260905165206 | 14 | 309 | 0.0 | 0.0 | 0.00 | 0.00 | 0.00 | 61 | 1031.1 |
| 20260905164702 | 13 | 92 | 0.0 | 0.0 | 0.00 | 0.00 | 0.00 | 61 | 1031.1 |
| 20260905164201 | 13 | 4 | 0.0 | 0.0 | 0.00 | 0.00 | 0.00 | 61 | 1031.1 |
| 20260905163701 | 13 | 337 | 0.0 | 0.0 | 0.00 | 0.00 | 0.00 | 62 | 1031.2 |
| 20260905163425 | 13 | 343 | 0.0 | 0.0 | 0.00 | 0.00 | 0.00 | 62 | 1031.2 |
| 20260905162700 | 13 | 252 | 0.0 | 1.6 | 0.00 | 0.00 | 0.00 | 65 | 1031.2 |
| 20260905162202 | 12 | 251 | 0.0 | 1.6 | 0.00 | 0.00 | 0.00 | 65 | 1031.4 |
| 20260905161700 | 12 | 255 | 0.0 | 0.0 | 0.00 | 0.00 | 0.00 | 66 | 1031.4 |
| 20260905161200 | 12 | 255 | 0.0 | 0.0 | 0.00 | 0.00 | 0.00 | 68 | 1031.4 |
| 20260905160923 | 12 | 255 | 0.0 | 0.0 | 0.00 | 0.00 | 0.00 | 69 | 1031.5 |
| 20260905160200 | 12 | 258 | 0.0 | 0.0 | 0.00 | 0.00 | 0.00 | 71 | 1031.5 |
| 20260905155701 | 11 | 258 | 0.0 | 0.0 | 0.00 | 0.00 | 0.00 | 71 | 1031.5 |
| 20260905155432 | 11 | 258 | 0.0 | 1.6 | 0.00 | 0.00 | 0.00 | 73 | 1031.6 |
| 20260905154701 | 11 | 257 | 0.0 | 1.6 | 0.00 | 0.00 | 0.00 | 74 | 1031.5 |
| 20260905154200 | 11 | 258 | 0.0 | 1.6 | 0.00 | 0.00 | 0.00 | 72 | 1031.5 |
| 20260905153701 | 11 | 250 | 0.0 | 1.6 | 0.00 | 0.00 | 0.00 | 73 | 1031.5 |
| 20260905153419 | 10 | 250 | 0.0 | 1.6 | 0.00 | 0.00 | 0.00 | 79 | 1031.5 |
| 20260905152659 | 9 | 250 | 0.0 | 1.6 | 0.00 | 0.00 | 0.00 | 79 | 1031.5 |
| 20260905152427 | 9 | 250 | 0.0 | 0.0 | 0.00 | 0.00 | 0.00 | 81 | 1031.5 |
| 20260905151659 | 8 | 250 | 0.0 | 0.0 | 0.00 | 0.00 | 0.00 | 83 | 1031.6 |
| 20260905151421 | 8 | 251 | 0.0 | 0.0 | 0.00 | 0.00 | 0.00 | 83 | 1031.6 |
| 20260905150659 | 8 | 247 | 0.0 | 1.6 | 0.00 | 0.00 | 0.00 | 84 | 1031.6 |
| 20260905150429 | 8 | 247 | 0.0 | 1.6 | 0.00 | 0.00 | 0.00 | 85 | 1031.7 |
| 20260905145658 | 8 | 247 | 0.0 | 0.0 | 0.00 | 0.00 | 0.00 | 90 | 1031.5 |
| 20260905145159 | 7 | 247 | 0.0 | 0.0 | 0.00 | 0.00 | 0.00 | 94 | 1031.6 |
| 20260905144659 | 6 | 247 | 0.0 | 1.6 | 0.00 | 0.00 | 0.00 | 93 | 1031.6 |
| 20260905144158 | 5 | 247 | 0.0 | 1.6 | 0.00 | 0.00 | 0.00 | 93 | 1031.6 |
| 20260905143658 | 5 | 247 | 0.0 | 0.0 | 0.00 | 0.00 | 0.00 | 93 | 1031.5 |
| 20260905143158 | 5 | 247 | 0.0 | 0.0 | 0.00 | 0.00 | 0.00 | 93 | 1031.5 |
| 20260905142659 | 5 | 247 | 0.0 | 0.0 | 0.00 | 0.00 | 0.00 | 93 | 1031.5 |
| 20260905142157 | 5 | 247 | 0.0 | 0.0 | 0.00 | 0.00 | 0.00 | 94 | 1031.5 |
| 20260905141701 | 5 | 247 | 0.0 | 0.0 | 0.00 | 0.00 | 0.00 | 94 | 1031.5 |
| 20260905141158 | 5 | 247 | 0.0 | 0.0 | 0.00 | 0.00 | 0.00 | 94 | 1031.4 |
| 20260905140659 | 4 | 247 | 0.0 | 0.0 | 0.00 | 0.00 | 0.00 | 94 | 1031.5 |
| 20260905140202 | 4 | 247 | 0.0 | 0.0 | 0.00 | 0.00 | 0.00 | 94 | 1031.3 |
| 20260905135657 | 4 | 247 | 0.0 | 0.0 | 0.00 | 0.00 | 0.00 | 93 | 1031.3 |
| 20260905135157 | 4 | 247 | 0.0 | 0.0 | 0.00 | 0.00 | 0.00 | 93 | 1031.4 |
| 20260905134657 | 4 | 247 | 0.0 | 0.0 | 0.00 | 0.00 | 0.00 | 93 | 1031.4 |
| 20260905134201 | 4 | 247 | 0.0 | 0.0 | 0.00 | 0.00 | 0.00 | 93 | 1031.2 |
| 20260905133918 | 4 | 247 | 0.0 | 0.0 | 0.00 | 0.00 | 0.00 | 93 | 1031.2 |
| 20260905133157 | 4 | 247 | 0.0 | 1.6 | 0.00 | 0.00 | 0.00 | 93 | 1031.3 |
| 20260905132656 | 4 | 247 | 0.0 | 1.6 | 0.00 | 0.00 | 0.00 | 93 | 1031.2 |
| 20260905132420 | 4 | 247 | 0.0 | 1.6 | 0.00 | 0.00 | 0.00 | 93 | 1031.2 |
| 20260905131656 | 4 | 213 | 0.0 | 0.0 | 0.00 | 0.00 | 0.00 | 92 | 1031.2 |
| 20260905131416 | 5 | 213 | 0.0 | 0.0 | 0.00 | 0.00 | 0.00 | 93 | 1031.2 |
| 20260905130657 | 5 | 213 | 0.0 | 0.0 | 0.00 | 0.00 | 0.00 | 93 | 1031.1 |
| 20260905130156 | 5 | 213 | 0.0 | 0.0 | 0.00 | 0.00 | 0.00 | 92 | 1031.1 |
| 20260905125657 | 5 | 213 | 0.0 | 0.0 | 0.00 | 0.00 | 0.00 | 92 | 1031.1 |
| 20260905125156 | 5 | 213 | 0.0 | 0.0 | 0.00 | 0.00 | 0.00 | 92 | 1031.0 |
| 20260905124926 | 5 | 213 | 0.0 | 0.0 | 0.00 | 0.03 | 0.00 | 92 | 1031.1 |
| 20260905124156 | 5 | 213 | 0.0 | 0.0 | 0.00 | 0.03 | 0.00 | 92 | 1031.0 |
| 20260905123657 | 5 | 213 | 0.0 | 0.0 | 0.00 | 0.03 | 0.00 | 91 | 1031.1 |
| 20260905123422 | 5 | 213 | 0.0 | 0.0 | 0.00 | 0.03 | 0.00 | 92 | 1031.0 |
| 20260905122655 | 5 | 213 | 0.0 | 0.0 | 0.00 | 0.03 | 0.00 | 92 | 1031.0 |
| 20260905122156 | 5 | 213 | 0.0 | 0.0 | 0.00 | 0.05 | 0.00 | 93 | 1031.0 |
| 20260905121655 | 5 | 213 | 0.0 | 0.0 | 0.00 | 0.05 | 0.00 | 93 | 1031.1 |
| 20260905121414 | 5 | 212 | 0.0 | 0.0 | 0.00 | 0.08 | 0.00 | 92 | 1031.1 |
| 20260905120655 | 5 | 213 | 0.0 | 0.0 | 0.00 | 0.08 | 0.00 | 92 | 1031.1 |
| 20260905120156 | 5 | 212 | 0.0 | 0.0 | 0.00 | 0.10 | 0.00 | 92 | 1031.0 |
| 20260905115655 | 5 | 213 | 0.0 | 0.0 | 0.00 | 0.15 | 0.00 | 92 | 1031.0 |
| 20260905115155 | 5 | 213 | 0.0 | 0.0 | 0.00 | 0.15 | 0.00 | 92 | 1031.0 |
| 20260905115135 | 5 | 212 | 0.0 | 0.0 | 0.00 | 0.18 | 0.00 | 92 | 1030.9 |
| 20260905114155 | 5 | 213 | 0.0 | 0.0 | 0.00 | 0.20 | 0.00 | 92 | 1030.9 |
| 20260905113655 | 5 | 212 | 0.0 | 0.0 | 0.00 | 0.20 | 0.00 | 92 | 1030.9 |
| 20260905113414 | 5 | 213 | 0.0 | 0.0 | 0.00 | 0.23 | 0.00 | 92 | 1030.9 |
| 20260905112655 | 5 | 213 | 0.0 | 0.0 | 0.00 | 0.23 | 0.00 | 92 | 1030.8 |
| 20260905112154 | 5 | 213 | 0.0 | 0.0 | 0.00 | 0.23 | 0.00 | 92 | 1030.8 |
| 20260905111655 | 5 | 212 | 0.0 | 0.0 | 0.00 | 0.25 | 0.00 | 92 | 1030.8 |
| 20260905111154 | 5 | 212 | 0.0 | 0.0 | 0.00 | 0.25 | 0.00 | 92 | 1030.8 |
| 20260905110918 | 5 | 213 | 0.0 | 0.0 | 0.00 | 0.25 | 0.00 | 92 | 1030.8 |
| 20260905110421 | 5 | 213 | 0.0 | 0.0 | 0.00 | 0.28 | 0.00 | 91 | 1030.8 |
| 20260905105654 | 5 | 212 | 0.0 | 0.0 | 0.00 | 0.30 | 0.00 | 91 | 1030.8 |
| 20260905105154 | 5 | 212 | 0.0 | 0.0 | 0.00 | 0.30 | 0.00 | 91 | 1030.8 |
| 20260905104653 | 5 | 212 | 0.0 | 0.0 | 0.00 | 0.30 | 0.00 | 91 | 1030.7 |
| 20260905104154 | 5 | 212 | 0.0 | 0.0 | 0.00 | 0.30 | 0.00 | 91 | 1030.7 |
| 20260905103653 | 5 | 212 | 0.0 | 0.0 | 0.00 | 0.30 | 0.00 | 92 | 1030.8 |
| 20260905103154 | 5 | 213 | 0.0 | 0.0 | 0.00 | 0.33 | 0.00 | 92 | 1030.7 |
| 20260905102915 | 5 | 212 | 0.0 | 0.0 | 0.00 | 0.33 | 0.00 | 91 | 1030.7 |
| 20260905102415 | 5 | 213 | 0.0 | 0.0 | 0.00 | 0.33 | 0.00 | 91 | 1030.7 |
| 20260905101652 | 5 | 212 | 0.0 | 0.0 | 0.00 | 0.33 | 0.00 | 91 | 1030.7 |
| 20260905101152 | 5 | 212 | 0.0 | 0.0 | 0.00 | 0.33 | 0.00 | 91 | 1030.6 |
| 20260905100914 | 5 | 212 | 0.0 | 0.0 | 0.00 | 0.33 | 0.00 | 91 | 1030.4 |
| 20260905100152 | 5 | 212 | 0.0 | 0.0 | 0.00 | 0.33 | 0.00 | 91 | 1030.6 |
| 20260905095654 | 5 | 212 | 0.0 | 0.0 | 0.00 | 0.33 | 0.00 | 90 | 1030.3 |
| 20260905095154 | 5 | 212 | 0.0 | 0.0 | 0.00 | 0.33 | 0.00 | 90 | 1030.3 |
| 20260905094653 | 5 | 212 | 0.0 | 0.0 | 0.00 | 0.33 | 0.00 | 89 | 1030.3 |
| 20260905094152 | 5 | 212 | 0.0 | 0.0 | 0.00 | 0.33 | 0.00 | 89 | 1030.3 |
| 20260905093656 | 6 | 212 | 0.0 | 0.0 | 0.00 | 0.33 | 0.00 | 88 | 1030.3 |
| 20260905093151 | 6 | 212 | 0.0 | 0.0 | 0.00 | 0.33 | 0.00 | 87 | 1030.3 |
| 20260905092651 | 6 | 212 | 0.0 | 0.0 | 0.00 | 0.33 | 0.00 | 88 | 1030.3 |
| 20260905092152 | 6 | 212 | 0.0 | 0.0 | 0.00 | 0.33 | 0.00 | 89 | 1030.1 |
| 20260905091650 | 6 | 212 | 0.0 | 0.0 | 0.00 | 0.33 | 0.00 | 90 | 1030.2 |
| 20260905091358 | 6 | 212 | 0.0 | 0.0 | 0.00 | 0.33 | 0.00 | 89 | 1030.0 |
| 20260905091249 | 6 | 212 | 0.0 | 0.0 | 0.00 | 0.33 | 0.00 | 89 | 1029.9 |
| 20260905090152 | 6 | 212 | 0.0 | 0.0 | 0.00 | 0.33 | 0.00 | 88 | 1030.0 |
| 20260905085650 | 6 | 212 | 0.0 | 0.0 | 0.00 | 0.33 | 0.00 | 86 | 1029.9 |
| 20260905085152 | 6 | 212 | 0.0 | 0.0 | 0.00 | 0.33 | 0.00 | 86 | 1029.9 |
| 20260905084651 | 6 | 212 | 0.0 | 0.0 | 0.00 | 0.33 | 0.00 | 87 | 1029.8 |
| 20260905084156 | 6 | 212 | 0.0 | 0.0 | 0.00 | 0.33 | 0.00 | 86 | 1029.7 |
| 20260905084150 | 6 | 212 | 0.0 | 0.0 | 0.00 | 0.33 | 0.00 | 86 | 1029.9 |
| 20260905083411 | 6 | 212 | 0.0 | 0.0 | 0.00 | 0.33 | 0.00 | 86 | 1029.7 |
| 20260905082917 | 6 | 212 | 0.0 | 0.0 | 0.00 | 0.33 | 0.00 | 86 | 1029.6 |
| 20260905082150 | 7 | 212 | 0.0 | 0.0 | 0.00 | 0.33 | 0.00 | 85 | 1029.6 |
| 20260905081655 | 7 | 212 | 0.0 | 0.0 | 0.00 | 0.33 | 0.00 | 85 | 1029.5 |
| 20260905081410 | 7 | 212 | 0.0 | 0.0 | 0.00 | 0.33 | 0.00 | 84 | 1029.5 |
| 20260905080649 | 7 | 212 | 0.0 | 0.0 | 0.00 | 0.33 | 0.00 | 82 | 1029.5 |
| 20260905080626 | 8 | 212 | 0.0 | 0.0 | 0.00 | 0.33 | 0.00 | 82 | 1029.5 |
| 20260905075649 | 8 | 212 | 0.0 | 0.0 | 0.00 | 0.33 | 0.00 | 81 | 1029.4 |
| 20260905075407 | 8 | 212 | 0.0 | 1.6 | 0.00 | 0.33 | 0.00 | 81 | 1029.4 |
| 20260905074649 | 8 | 216 | 0.0 | 1.6 | 0.00 | 0.33 | 0.00 | 81 | 1029.4 |
| 20260905074422 | 8 | 216 | 0.0 | 1.6 | 0.00 | 0.33 | 0.00 | 81 | 1029.4 |
| 20260905073648 | 8 | 203 | 0.0 | 1.6 | 0.00 | 0.33 | 0.00 | 82 | 1029.4 |
| 20260905073205 | 8 | 217 | 0.0 | 0.0 | 0.00 | 0.33 | 0.00 | 81 | 1029.3 |
| 20260905073156 | 8 | 217 | 0.0 | 0.0 | 0.00 | 0.33 | 0.00 | 81 | 1029.4 |
| 20260905072148 | 8 | 217 | 0.0 | 3.2 | 0.00 | 0.33 | 0.00 | 81 | 1029.3 |
| 20260905072134 | 8 | 216 | 3.2 | 3.2 | 0.00 | 0.33 | 0.00 | 81 | 1029.3 |
| 20260905071149 | 8 | 220 | 0.0 | 0.0 | 0.00 | 0.33 | 0.00 | 81 | 1029.2 |
| 20260905070913 | 8 | 244 | 0.0 | 0.0 | 0.00 | 0.33 | 0.00 | 81 | 1029.1 |
| 20260905070147 | 8 | 244 | 0.0 | 0.0 | 0.00 | 0.33 | 0.00 | 80 | 1029.1 |
| 20260905065649 | 8 | 244 | 0.0 | 3.2 | 0.00 | 0.33 | 0.33 | 79 | 1029.1 |
| 20260905065148 | 8 | 244 | 1.6 | 3.2 | 0.00 | 0.33 | 0.33 | 80 | 1029.1 |
| 20260905064652 | 8 | 206 | 0.0 | 3.2 | 0.00 | 0.33 | 0.33 | 80 | 1029.1 |
| 20260905064150 | 8 | 224 | 0.0 | 0.0 | 0.00 | 0.33 | 0.33 | 79 | 1029.1 |
| 20260905063914 | 8 | 224 | 0.0 | 0.0 | 0.00 | 0.33 | 0.33 | 78 | 1029.1 |
| 20260905063148 | 9 | 224 | 0.0 | 0.0 | 0.00 | 0.33 | 0.33 | 77 | 1029.1 |
| 20260905062647 | 10 | 227 | 0.0 | 1.6 | 0.00 | 0.33 | 0.33 | 76 | 1028.9 |
| 20260905062157 | 10 | 212 | 0.0 | 1.6 | 0.00 | 0.33 | 0.33 | 76 | 1028.9 |
| 20260905061647 | 10 | 212 | 0.0 | 0.0 | 0.00 | 0.33 | 0.33 | 76 | 1028.9 |
| 20260905061149 | 10 | 212 | 0.0 | 1.6 | 0.00 | 0.33 | 0.33 | 76 | 1028.8 |
| 20260905060647 | 10 | 212 | 0.0 | 1.6 | 0.00 | 0.33 | 0.33 | 76 | 1028.8 |
| 20260905060148 | 10 | 216 | 0.0 | 0.0 | 0.00 | 0.33 | 0.33 | 76 | 1028.8 |
| 20260905055702 | 10 | 193 | 0.0 | 3.2 | 0.00 | 0.33 | 0.33 | 75 | 1028.8 |
| 20260905055647 | 10 | 193 | 1.6 | 3.2 | 0.00 | 0.33 | 0.33 | 75 | 1028.8 |
| 20260905054645 | 10 | 199 | 0.0 | 0.0 | 0.00 | 0.33 | 0.33 | 76 | 1028.8 |
| 20260905054145 | 10 | 210 | 0.0 | 0.0 | 0.00 | 0.33 | 0.33 | 76 | 1028.7 |
| 20260905053907 | 10 | 217 | 0.0 | 4.8 | 0.00 | 0.33 | 0.33 | 76 | 1028.8 |
| 20260905053146 | 10 | 168 | 1.6 | 4.8 | 0.00 | 0.33 | 0.33 | 76 | 1028.8 |
| 20260905052647 | 10 | 172 | 1.6 | 4.8 | 0.00 | 0.33 | 0.33 | 76 | 1028.8 |
| 20260905052145 | 10 | 257 | 0.0 | 1.6 | 0.00 | 0.33 | 0.33 | 75 | 1028.8 |
| 20260905051645 | 10 | 257 | 0.0 | 3.2 | 0.00 | 0.33 | 0.33 | 75 | 1028.7 |
| 20260905051145 | 10 | 257 | 0.0 | 4.8 | 0.00 | 0.33 | 0.33 | 74 | 1028.7 |
| 20260905051129 | 10 | 223 | 3.2 | 4.8 | 0.00 | 0.33 | 0.33 | 74 | 1028.7 |
| 20260905050146 | 10 | 172 | 3.2 | 3.2 | 0.00 | 0.33 | 0.33 | 73 | 1028.7 |
| 20260905050134 | 11 | 197 | 0.0 | 3.2 | 0.00 | 0.33 | 0.33 | 73 | 1028.7 |
| 20260905045146 | 11 | 223 | 0.0 | 4.8 | 0.00 | 0.33 | 0.33 | 72 | 1028.7 |
| 20260905044646 | 11 | 223 | 3.2 | 4.8 | 0.00 | 0.33 | 0.33 | 73 | 1028.7 |
| 20260905044409 | 11 | 233 | 0.0 | 0.0 | 0.00 | 0.33 | 0.33 | 72 | 1028.6 |
| 20260905043644 | 11 | 171 | 0.0 | 0.0 | 0.00 | 0.33 | 0.33 | 72 | 1028.6 |
| 20260905043144 | 11 | 168 | 0.0 | 0.0 | 0.00 | 0.33 | 0.33 | 72 | 1028.5 |
| 20260905042645 | 11 | 168 | 0.0 | 0.0 | 0.00 | 0.33 | 0.33 | 71 | 1028.5 |
| 20260905042144 | 11 | 200 | 0.0 | 0.0 | 0.00 | 0.33 | 0.33 | 71 | 1028.5 |
| 20260905041644 | 11 | 219 | 0.0 | 0.0 | 0.00 | 0.33 | 0.33 | 71 | 1028.5 |
| 20260905041144 | 11 | 210 | 0.0 | 0.0 | 0.00 | 0.33 | 0.33 | 69 | 1028.4 |
| 20260905040646 | 12 | 227 | 0.0 | 0.0 | 0.00 | 0.33 | 0.33 | 70 | 1028.3 |
| 20260905040409 | 12 | 235 | 0.0 | 0.0 | 0.00 | 0.33 | 0.33 | 70 | 1028.2 |
| 20260905035645 | 12 | 227 | 0.0 | 0.0 | 0.00 | 0.33 | 0.33 | 69 | 1028.3 |
| 20260905035143 | 12 | 226 | 0.0 | 0.0 | 0.00 | 0.33 | 0.33 | 66 | 1028.3 |
| 20260905034644 | 12 | 226 | 0.0 | 0.0 | 0.00 | 0.33 | 0.33 | 67 | 1028.2 |
| 20260905034144 | 12 | 226 | 0.0 | 0.0 | 0.00 | 0.33 | 0.33 | 67 | 1028.1 |
| 20260905033644 | 12 | 226 | 0.0 | 0.0 | 0.00 | 0.33 | 0.33 | 67 | 1028.1 |
| 20260905033144 | 12 | 226 | 0.0 | 0.0 | 0.00 | 0.33 | 0.33 | 66 | 1028.1 |
| 20260905032644 | 12 | 213 | 0.0 | 0.0 | 0.00 | 0.33 | 0.33 | 66 | 1028.1 |
| 20260905032145 | 12 | 192 | 0.0 | 0.0 | 0.00 | 0.33 | 0.33 | 66 | 1028.1 |
| 20260905031903 | 12 | 192 | 0.0 | 0.0 | 0.00 | 0.33 | 0.33 | 67 | 1028.0 |
| 20260905031144 | 12 | 214 | 0.0 | 0.0 | 0.00 | 0.33 | 0.33 | 67 | 1027.9 |
| 20260905030643 | 12 | 221 | 0.0 | 0.0 | 0.00 | 0.33 | 0.33 | 67 | 1027.8 |
| 20260905030142 | 12 | 221 | 0.0 | 0.0 | 0.00 | 0.33 | 0.33 | 67 | 1027.7 |
| 20260905025643 | 12 | 245 | 0.0 | 0.0 | 0.00 | 0.33 | 0.33 | 66 | 1027.6 |
| 20260905025142 | 12 | 247 | 0.0 | 0.0 | 0.00 | 0.33 | 0.33 | 64 | 1027.5 |
| 20260905025124 | 13 | 247 | 0.0 | 0.0 | 0.00 | 0.33 | 0.33 | 64 | 1027.3 |
| 20260905024407 | 13 | 247 | 0.0 | 0.0 | 0.00 | 0.33 | 0.33 | 65 | 1027.3 |
| 20260905023643 | 13 | 189 | 0.0 | 0.0 | 0.00 | 0.33 | 0.33 | 64 | 1027.3 |
| 20260905023142 | 13 | 189 | 0.0 | 0.0 | 0.00 | 0.33 | 0.33 | 67 | 1027.2 |
| 20260905022641 | 13 | 189 | 0.0 | 0.0 | 0.00 | 0.33 | 0.33 | 69 | 1027.2 |
| 20260905022142 | 13 | 189 | 0.0 | 0.0 | 0.00 | 0.33 | 0.33 | 69 | 1027.2 |
| 20260905021647 | 13 | 110 | 0.0 | 1.6 | 0.00 | 0.33 | 0.33 | 70 | 1027.2 |
| 20260905021142 | 13 | 216 | 0.0 | 1.6 | 0.00 | 0.33 | 0.33 | 69 | 1027.1 |
| 20260905020645 | 14 | 216 | 0.0 | 0.0 | 0.00 | 0.33 | 0.33 | 68 | 1026.9 |
| 20260905020142 | 15 | 162 | 0.0 | 0.0 | 0.00 | 0.33 | 0.33 | 62 | 1026.9 |
| 20260905015641 | 15 | 162 | 0.0 | 0.0 | 0.00 | 0.33 | 0.33 | 57 | 1026.9 |
| 20260905015142 | 15 | 162 | 0.0 | 0.0 | 0.00 | 0.33 | 0.33 | 60 | 1026.8 |
| 20260905014902 | 15 | 162 | 0.0 | 0.0 | 0.00 | 0.33 | 0.33 | 61 | 1026.8 |
| 20260905014141 | 16 | 162 | 0.0 | 0.0 | 0.00 | 0.33 | 0.33 | 59 | 1026.7 |
| 20260905013641 | 16 | 162 | 0.0 | 0.0 | 0.00 | 0.33 | 0.33 | 57 | 1026.6 |
| 20260905013402 | 16 | 162 | 0.0 | 0.0 | 0.00 | 0.33 | 0.33 | 59 | 1026.6 |
| 20260905012641 | 16 | 162 | 0.0 | 0.0 | 0.00 | 0.33 | 0.33 | 56 | 1026.6 |
| 20260905012141 | 17 | 162 | 0.0 | 0.0 | 0.00 | 0.33 | 0.33 | 55 | 1026.5 |
| 20260905011641 | 17 | 162 | 0.0 | 0.0 | 0.00 | 0.33 | 0.33 | 52 | 1026.5 |
| 20260905011140 | 18 | 162 | 0.0 | 4.8 | 0.00 | 0.33 | 0.33 | 45 | 1026.5 |
| 20260905010642 | 18 | 162 | 0.0 | 4.8 | 0.00 | 0.33 | 0.33 | 43 | 1026.5 |
| 20260905010140 | 18 | 162 | 0.0 | 4.8 | 0.00 | 0.33 | 0.33 | 43 | 1026.3 |
| 20260905005641 | 18 | 147 | 3.2 | 4.8 | 0.00 | 0.33 | 0.33 | 41 | 1026.4 |
| 20260905005137 | 18 | 138 | 3.2 | 4.8 | 0.00 | 0.33 | 0.33 | 42 | 1026.3 |
| 20260905004902 | 18 | 173 | 1.6 | 6.4 | 0.00 | 0.33 | 0.33 | 41 | 1026.3 |
| 20260905004143 | 18 | 168 | 3.2 | 6.4 | 0.00 | 0.33 | 0.33 | 40 | 1026.3 |
| 20260905003639 | 18 | 158 | 4.8 | 8.0 | 0.00 | 0.33 | 0.33 | 41 | 1026.3 |
| 20260905003140 | 18 | 140 | 3.2 | 9.7 | 0.00 | 0.33 | 0.33 | 40 | 1026.2 |
| 20260905002644 | 18 | 117 | 1.6 | 9.7 | 0.00 | 0.33 | 0.33 | 41 | 1026.2 |
| 20260905002139 | 18 | 118 | 4.8 | 9.7 | 0.00 | 0.33 | 0.33 | 40 | 1026.2 |
| 20260905001640 | 18 | 104 | 3.2 | 11.3 | 0.00 | 0.33 | 0.33 | 41 | 1026.2 |
| 20260905001138 | 18 | 102 | 4.8 | 11.3 | 0.00 | 0.33 | 0.33 | 42 | 1026.2 |
| 20260905000634 | 18 | 117 | 3.2 | 9.7 | 0.00 | 0.33 | 0.33 | 42 | 1026.1 |
| 20260905000135 | 18 | 128 | 3.2 | 11.3 | 0.00 | 0.33 | 0.33 | 41 | 1026.1 |
| 20260904235906 | 18 | 124 | 3.2 | 11.3 | 0.00 | 0.33 | 0.33 | 41 | 1026.0 |
| 20260904235138 | 19 | 114 | 3.2 | 11.3 | 0.00 | 0.33 | 0.33 | 40 | 1026.1 |
| 20260904234640 | 19 | 141 | 4.8 | 9.7 | 0.00 | 0.33 | 0.33 | 39 | 1026.0 |
| 20260904234139 | 19 | 133 | 4.8 | 9.7 | 0.00 | 0.33 | 0.33 | 40 | 1025.8 |
| 20260904233638 | 18 | 61 | 3.2 | 9.7 | 0.00 | 0.33 | 0.33 | 42 | 1026.0 |
| 20260904233138 | 18 | 86 | 3.2 | 11.3 | 0.00 | 0.33 | 0.33 | 42 | 1026.0 |
| 20260904232638 | 18 | 125 | 3.2 | 11.3 | 0.00 | 0.33 | 0.33 | 42 | 1026.0 |
| 20260904232138 | 18 | 113 | 3.2 | 9.7 | 0.00 | 0.33 | 0.33 | 42 | 1026.0 |
| 20260904231637 | 18 | 97 | 6.4 | 8.0 | 0.00 | 0.33 | 0.33 | 41 | 1026.0 |
| 20260904231144 | 18 | 104 | 4.8 | 11.3 | 0.00 | 0.33 | 0.33 | 41 | 1025.8 |
| 20260904230854 | 18 | 109 | 3.2 | 14.5 | 0.00 | 0.33 | 0.33 | 41 | 1025.8 |
| 20260904225636 | 18 | 176 | 4.8 | 11.3 | 0.00 | 0.33 | 0.33 | 44 | 1025.8 |
| 20260904225137 | 18 | 118 | 6.4 | 9.7 | 0.00 | 0.33 | 0.33 | 43 | 1026.0 |
| 20260904224637 | 18 | 118 | 1.6 | 8.0 | 0.00 | 0.33 | 0.33 | 43 | 1026.0 |
| 20260904224137 | 18 | 104 | 3.2 | 14.5 | 0.00 | 0.33 | 0.33 | 42 | 1026.1 |
| 20260904223635 | 18 | 65 | 1.6 | 14.5 | 0.00 | 0.33 | 0.33 | 44 | 1026.1 |
| 20260904223136 | 18 | 127 | 1.6 | 20.9 | 0.00 | 0.33 | 0.33 | 45 | 1026.1 |
| 20260904222638 | 18 | 73 | 4.8 | 20.9 | 0.00 | 0.33 | 0.33 | 43 | 1026.0 |
| 20260904222136 | 18 | 113 | 8.0 | 19.3 | 0.00 | 0.33 | 0.33 | 43 | 1025.8 |
| 20260904221637 | 18 | 130 | 6.4 | 17.7 | 0.00 | 0.33 | 0.33 | 42 | 1026.0 |
| 20260904221626 | 19 | 142 | 11.3 | 22.5 | 0.00 | 0.33 | 0.33 | 42 | 1026.0 |
| 20260904220636 | 19 | 99 | 6.4 | 24.1 | 0.00 | 0.33 | 0.33 | 42 | 1026.0 |
| 20260904220359 | 19 | 148 | 9.7 | 24.1 | 0.00 | 0.33 | 0.33 | 43 | 1026.0 |
| 20260904215633 | 18 | 131 | 6.4 | 22.5 | 0.00 | 0.33 | 0.33 | 44 | 1026.0 |
| 20260904215352 | 19 | 100 | 8.0 | 22.5 | 0.00 | 0.33 | 0.33 | 45 | 1026.0 |
| 20260904214636 | 19 | 107 | 11.3 | 20.9 | 0.00 | 0.33 | 0.33 | 44 | 1026.0 |
| 20260904214402 | 19 | 92 | 9.7 | 20.9 | 0.00 | 0.33 | 0.33 | 44 | 1025.8 |
| 20260904213856 | 18 | 113 | 11.3 | 20.9 | 0.00 | 0.33 | 0.33 | 46 | 1025.8 |
| 20260904213355 | 19 | 73 | 9.7 | 20.9 | 0.00 | 0.33 | 0.33 | 44 | 1026.0 |
| 20260904213126 | 19 | 66 | 6.4 | 22.5 | 0.00 | 0.33 | 0.33 | 44 | 1026.0 |
| 20260904212135 | 19 | 107 | 14.5 | 22.5 | 0.00 | 0.33 | 0.33 | 42 | 1025.8 |
| 20260904211635 | 19 | 121 | 6.4 | 22.5 | 0.00 | 0.33 | 0.33 | 45 | 1025.7 |
| 20260904211405 | 18 | 62 | 8.0 | 22.5 | 0.00 | 0.33 | 0.33 | 44 | 1025.8 |
| 20260904210856 | 19 | 109 | 11.3 | 20.9 | 0.00 | 0.33 | 0.33 | 44 | 1025.7 |
| 20260904210134 | 18 | 69 | 11.3 | 20.9 | 0.00 | 0.33 | 0.33 | 45 | 1025.6 |
| 20260904210122 | 19 | 47 | 3.2 | 14.5 | 0.00 | 0.33 | 0.33 | 44 | 1025.7 |
| 20260904205134 | 19 | 38 | 6.4 | 11.3 | 0.00 | 0.33 | 0.33 | 45 | 1025.8 |
| 20260904204636 | 18 | 109 | 8.0 | 11.3 | 0.00 | 0.33 | 0.33 | 45 | 1025.7 |
| 20260904204135 | 18 | 68 | 4.8 | 9.7 | 0.00 | 0.33 | 0.33 | 46 | 1025.7 |
| 20260904203634 | 18 | 18 | 4.8 | 11.3 | 0.00 | 0.33 | 0.33 | 45 | 1025.7 |
| 20260904203352 | 18 | 51 | 4.8 | 11.3 | 0.00 | 0.33 | 0.33 | 45 | 1025.8 |